Dewpoint
29 21 19 19 18 17 21 21 20 19 18 20 21 20 17 16 15 15 16 16 18 19 14 16 15 15 15 14 15 17 19 21 20 21 23 20 24 25 22 22 25 24 23 32 33 32 33 32 28 27 25 22 22 23 23 21 20 21 25 26 24 25 24 25 27 26 27 28 28 36 39 37 38 37 37 38 38 38 38 38 40 40 42 41 42 42
31 21 18 19 23 20 18 23 22 20 21 18 18 19 16 18 14 14 16 17 18 19 13 16 13 14 13 12 14 16 18 17 19 20 19 19 20 22 23 24 25 24 29 30 26 25 30 30 34 30 26 27 19 20 22 21 22 22 26 25 25 23 24 25 26 25 25 27 26 32 37 39 38 36 37 36 36 37 36 37 37 40 40 41 40 42
22 19 19 21 23 24 24 24 23 20 21 20 17 18 16 15 18 16 16 17 18 20 15 16 13 12 10 11 13 15 16 19 20 22 22 24 24 22 22 23 25 25 26 26 23 24 24 29 33 30 25 24 23 23 23 25 23 21 22 24 25 23 25 23 25 25 24 26 26 27 29 36 39 39 39 39 37 36 36 36 36 36 39 39 39 40
23 21 21 22 22 23 21 21 21 21 20 21 19 17 15 17 16 19 16 16 18 18 16 17 16 12 12 12 13 15 16 18 23 24 25 25 23 20 19 21 24 25 26 25 24 23 23 25 25 28 28 25 28 24 23 23 22 21 19 23 26 24 24 23 24 28 26 26 26 26 25 25 28 32 38 40 38 36 32 29 30 33 33 37 38 38
20 22 25 23 24 23 19 19 20 17 16 22 20 19 16 16 19 19 16 18 18 21 20 17 17 14 14 12 11 12 18 23 23 20 22 23 25 23 25 28 28 22 23 25 25 25 23 23 24 26 27 28 26 24 25 26 24 26 21 23 26 25 25 23 25 26 26 25 26 25 25 24 24 25 22 23 27 31 31 25 25 28 29 30 32 34
22 22 24 23 22 21 21 20 19 20 17 18 20 19 21 19 17 18 17 21 19 20 18 15 13 15 16 14 12 11 13 12 14 19 15 15 18 20 18 21 22 26 28 27 25 25 26 26 26 27 28 27 28 24 25 27 27 24 20 21 24 24 25 24 25 26 27 23 23 24 20 18 19 17 19 19 20 21 21 21 23 24 25 27 27 27
20 24 24 21 21 23 19 18 19 20 21 19 16 17 19 18 18 18 21 22 21 16 22 19 13 12 19 14 14 14 15 13 14 16 16 16 19 18 19 19 19 21 22 25 26 26 25 25 25 25 25 27 26 25 28 28 27 25 24 23 25 24 24 29 29 27 25 20 21 24 26 26 23 19 19 22 22 22 22 22 23 23 24 25 26 26
23 25 23 23 24 24 21 18 18 17 19 19 21 21 19 18 19 18 22 21 20 23 24 20 16 12 12 16 15 18 17 15 15 11 13 18 18 20 19 18 21 21 22 24 25 25 25 25 25 24 26 25 24 25 27 29 29 27 24 23 22 23 23 25 28 27 25 22 20 22 23 21 21 23 22 22 20 22 23 21 22 22 23 24 25 26
22 22 21 21 22 21 19 20 21 18 17 19 21 23 21 19 20 23 24 22 22 19 16 19 21 16 16 18 16 15 16 16 17 12 13 16 18 20 21 20 21 21 23 23 24 24 24 25 25 25 26 26 27 28 28 28 28 29 29 26 24 20 23 24 27 27 25 24 22 21 18 18 18 22 20 21 21 20 22 22 22 22 22 23 24 25
22 24 23 20 21 19 22 20 20 20 19 24 24 26 23 24 24 24 19 16 17 16 16 17 18 14 11 16 14 16 15 15 17 12 11 15 17 20 20 22 21 21 23 26 24 25 26 25 26 27 27 27 28 30 29 29 29 29 28 25 22 19 20 25 26 25 26 26 22 20 22 23 18 19 17 19 19 21 22 22 22 21 21 21 22 23
20 29 27 24 21 22 21 21 21 20 22 26 26 24 25 22 23 23 19 15 18 12 15 15 15 15 11 16 15 17 20 16 15 12 11 16 19 19 21 21 22 19 22 24 25 25 26 27 26 26 27 27 30 33 31 32 30 29 27 25 23 21 19 23 26 27 25 25 25 20 22 24 23 23 23 16 15 18 20 19 20 20 21 21 21 22
22 26 24 25 29 26 23 23 24 24 25 23 18 17 19 20 15 21 17 14 12 7 15 13 14 13 11 6 16 15 15 14 13 12 9 14 16 18 20 20 20 21 22 24 24 25 26 26 27 28 27 27 29 31 32 34 32 31 28 26 23 23 23 22 25 27 26 24 25 25 25 23 22 23 23 20 18 20 21 21 17 17 18 18 22 22
20 20 22 25 26 23 23 21 25 26 25 23 20 18 16 10 12 10 12 9 6 7 17 13 13 15 12 9 12 14 14 14 14 12 11 13 14 17 18 20 20 24 24 25 25 26 27 27 27 27 27 28 29 31 31 32 33 31 29 26 23 22 23 22 24 24 25 26 24 22 22 23 22 22 23 21 22 22 18 17 18 18 14 16 18 20
20 23 25 24 24 25 23 17 17 22 20 20 21 17 15 9 10 8 10 9 8 16 10 14 12 9 8 9 13 12 14 14 12 15 18 17 16 16 18 20 20 24 25 26 27 28 29 28 28 28 28 27 29 29 30 31 31 31 31 29 25 23 24 23 23 24 24 24 24 26 24 22 22 21 22 18 17 20 20 20 18 18 16 17 20 22
20 20 21 23 17 24 19 18 16 16 16 16 16 17 16 14 14 11 10 9 12 12 13 11 13 14 16 14 16 15 15 16 15 15 18 20 20 21 22 24 22 22 23 26 28 29 28 28 27 28 29 29 30 30 32 32 31 32 31 30 28 26 25 25 22 23 23 23 25 25 25 24 21 21 18 17 20 19 21 20 22 20 19 17 18 20
17 18 23 24 22 21 18 21 20 17 16 17 19 19 18 16 17 14 13 13 14 12 14 15 11 13 9 17 18 18 17 16 16 16 20 18 19 23 23 22 23 21 23 26 28 28 28 28 29 29 29 29 30 30 32 32 33 34 33 31 29 28 26 26 24 24 22 21 23 26 26 24 24 22 22 20 22 20 22 23 22 21 22 21 21 22
20 18 20 20 20 18 18 20 18 19 20 20 20 18 19 18 16 13 11 10 14 11 11 19 9 10 12 15 15 17 16 15 15 14 14 16 19 22 22 24 23 23 26 27 28 27 27 27 28 29 29 29 29 30 31 31 32 31 32 32 30 29 28 28 26 25 24 23 23 25 27 26 26 26 25 20 21 23 24 25 23 21 22 25 24 25
22 17 21 18 14 18 19 19 20 21 19 18 19 16 17 18 18 19 13 11 12 10 15 13 15 12 12 17 16 15 16 15 16 15 13 16 20 18 22 24 24 25 24 25 26 27 28 28 28 29 30 29 28 28 29 30 32 32 32 32 30 29 29 29 27 26 25 24 23 23 26 26 26 26 26 24 22 22 21 23 22 23 23 21 24 25
17 20 18 18 17 20 24 23 23 25 25 21 17 23 16 17 16 15 14 12 12 12 12 13 10 11 11 12 18 14 15 15 15 19 19 16 17 18 19 20 23 24 25 26 26 27 28 28 28 28 28 28 28 29 29 30 31 33 32 32 30 29 29 29 29 27 26 25 26 27 24 24 26 26 26 26 23 23 23 22 21 22 22 24 24 21
18 21 18 17 17 20 21 23 19 17 21 23 21 19 21 23 22 16 15 16 14 13 14 19 17 17 12 10 13 14 16 16 15 17 15 15 16 16 17 21 22 25 25 26 26 27 27 27 27 27 28 28 28 28 30 30 32 32 32 32 31 31 30 29 29 28 26 27 26 27 24 25 24 24 27 26 25 22 22 21 22 21 22 22 21 22
19 22 19 18 20 21 18 21 21 17 16 17 21 18 19 21 19 18 18 17 15 13 12 12 14 21 12 12 14 14 15 16 16 16 18 18 18 19 21 22 23 23 25 26 27 26 26 26 26 27 28 29 29 29 30 31 31 31 32 31 31 31 31 31 31 30 29 28 28 27 26 24 25 25 25 27 27 24 22 22 23 22 21 20 22 22
21 19 18 18 22 20 19 20 20 19 18 16 16 16 17 21 18 17 17 15 13 14 12 11 14 19 19 16 16 16 17 18 21 21 20 20 18 20 23 23 23 25 24 24 25 25 26 26 27 27 28 30 30 30 29 30 29 29 30 32 32 32 32 31 32 31 31 29 28 27 26 25 25 25 25 26 26 26 24 24 24 23 23 22 21 22
18 21 21 19 20 18 17 18 17 20 21 19 17 15 16 16 18 18 15 16 13 14 11 12 12 15 20 17 17 17 18 18 19 20 18 17 17 17 18 21 23 25 25 25 25 25 26 27 27 27 27 27 28 28 28 28 30 30 30 30 31 31 31 32 32 32 30 30 29 28 27 26 25 25 25 25 25 25 26 26 25 25 25 23 21 23
26 19 18 22 19 17 18 17 18 16 16 18 17 16 17 17 18 18 19 20 16 12 12 12 11 15 21 21 18 19 20 20 20 18 17 16 16 19 21 23 24 24 25 25 26 27 27 27 27 26 27 28 29 30 29 29 29 30 30 30 31 30 31 32 32 31 30 30 29 28 27 26 26 25 24 24 24 24 25 26 26 26 26 24 23 23
19 22 18 16 18 20 21 20 19 18 19 17 16 15 15 16 16 16 18 17 15 15 17 14 14 18 18 20 20 17 16 16 16 17 20 21 21 23 22 22 23 24 25 25 25 25 26 26 27 28 28 28 28 28 28 28 28 28 29 29 29 30 30 31 31 30 30 30 30 30 28 28 27 26 26 25 25 25 25 25 25 25 25 25 24 24
20 21 19 12 13 14 14 15 16 18 18 17 21 14 15 15 15 17 16 15 15 15 16 14 15 17 14 19 16 17 18 17 17 18 18 21 21 20 22 24 23 25 25 25 26 26 27 27 28 28 27 28 28 27 28 28 28 28 28 28 28 29 30 31 31 30 30 30 30 30 29 29 28 27 26 26 26 26 25 25 25 24 25 24 24 24
17 17 20 19 15 15 15 17 20 21 17 18 17 15 14 15 15 16 17 16 16 16 14 16 17 16 17 17 18 18 18 17 18 19 19 20 21 23 24 25 25 25 25 24 25 26 26 26 26 27 27 28 27 27 27 27 28 28 28 28 28 29 29 30 30 30 30 30 30 29 29 29 29 29 28 28 27 27 26 25 25 24 24 24 24 24
19 15 18 20 18 18 18 18 19 20 17 17 17 17 15 15 15 17 17 17 17 16 15 18 16 15 15 17 18 19 20 20 20 19 19 19 21 22 22 22 25 22 24 25 25 25 26 26 27 27 28 27 28 28 28 28 28 27 28 28 29 29 29 32 30 29 30 30 30 30 30 30 30 30 29 28 28 27 26 26 25 24 24 24 24 24
17 14 14 16 17 15 15 15 15 15 15 16 16 16 16 15 16 19 19 17 16 17 17 16 15 16 16 18 19 19 19 18 19 19 19 19 19 21 21 22 23 23 24 25 25 26 26 26 28 28 28 28 28 28 27 28 28 28 28 28 28 29 29 29 29 29 30 30 30 30 31 32 31 30 29 28 28 28 27 27 26 26 25 24 24 26
19 14 15 16 15 16 16 16 16 16 16 16 16 16 16 16 16 16 17 17 16 17 17 17 17 17 18 18 18 19 20 20 19 19 19 20 20 22 23 22 23 23 24 24 25 25 26 26 27 27 28 28 28 28 27 27 28 28 29 29 29 29 29 29 29 29 29 30 30 31 31 31 30 30 29 29 28 28 28 27 27 26 25 25 24 24
20 14 18 14 17 21 16 16 18 17 16 16 17 17 16 16 16 17 18 17 17 16 16 16 16 15 18 19 19 20 20 20 20 19 18 20 22 22 22 23 24 24 24 25 25 26 27 27 27 27 27 27 28 29 29 28 28 28 28 28 29 29 29 28 28 29 28 29 30 30 30 30 30 30 29 29 29 29 28 28 28 27 26 26 25 25
18 16 15 14 14 18 17 16 15 16 16 18 18 17 16 16 17 16 16 16 16 17 17 16 16 16 18 20 21 21 20 20 20 20 21 21 22 22 23 23 23 24 24 25 25 26 27 27 28 28 28 29 29 29 29 30 30 30 28 29 29 30 29 29 28 28 28 29 29 30 29 30 30 30 29 30 29 29 29 28 27 27 27 26 26 26
19 17 15 14 12 16 18 15 16 18 20 21 23 23 18 17 17 16 17 17 17 17 16 17 16 19 21 23 20 20 22 21 21 21 23 24 24 24 23 23 23 24 24 25 26 26 27 27 28 29 29 29 29 30 30 30 30 30 30 30 30 30 29 28 27 27 28 28 28 28 29 29 29 29 29 29 30 29 29 28 28 27 27 27 27 26
17 18 14 18 12 15 19 18 18 18 17 18 17 19 17 16 16 16 16 16 16 17 16 18 19 21 22 22 22 21 22 22 23 24 25 23 22 23 23 23 24 23 24 25 26 27 27 28 28 29 29 29 30 29 30 30 29 29 30 29 28 27 28 28 28 28 27 28 28 28 28 28 28 29 29 29 29 29 28 28 28 28 28 28 27 26
19 17 15 17 13 15 16 18 18 14 19 18 19 20 18 17 17 16 17 17 16 18 19 19 19 20 20 21 23 22 22 22 23 22 21 21 24 23 23 23 24 25 26 26 27 27 28 29 29 29 29 29 28 30 30 30 30 30 30 29 29 28 28 28 27 28 28 28 28 27 28 28 28 28 29 29 29 28 28 28 28 28 28 27 27 27
17 16 15 15 14 15 14 14 16 19 23 23 20 20 19 18 17 17 17 18 19 18 18 18 19 19 21 21 21 22 23 23 23 23 23 23 24 25 24 25 25 26 27 27 28 29 30 30 30 29 29 30 31 30 30 29 29 29 29 29 28 28 27 27 27 27 28 28 27 28 28 28 27 28 28 28 28 28 28 28 28 28 28 27 27 27
21 18 17 15 14 12 13 13 16 19 17 18 18 18 18 17 17 16 17 16 18 18 18 18 19 19 21 21 22 23 23 22 22 23 24 25 28 28 26 25 26 28 28 29 29 29 30 30 29 29 29 29 29 28 29 29 29 29 28 28 29 28 28 27 27 27 27 28 28 28 28 28 28 28 28 28 28 27 28 28 28 27 27 27 27 26
17 19 19 16 17 14 13 14 14 14 15 19 17 18 19 19 19 18 17 16 21 22 21 20 20 18 21 22 23 23 22 19 19 24 25 28 28 31 29 30 29 28 28 29 29 29 29 29 28 28 29 28 28 28 29 28 29 28 28 28 28 28 28 27 27 28 28 28 28 28 28 28 28 28 28 27 28 28 28 28 27 27 27 26 26 26
19 18 19 16 20 16 13 12 10 11 18 16 16 17 18 19 19 19 19 19 24 25 22 21 20 22 24 24 25 22 18 18 17 20 25 26 28 30 28 28 29 29 29 29 29 29 28 29 29 28 28 28 27 28 28 28 27 27 28 28 28 28 28 28 28 28 29 29 29 29 29 28 28 28 28 28 28 28 28 27 27 27 26 26 26 26
17 15 15 13 12 13 10 10 13 15 19 18 17 17 18 18 19 19 17 18 23 25 24 23 22 23 25 26 26 21 20 18 19 20 21 24 27 28 29 28 28 28 28 29 30 29 29 29 28 28 27 27 27 28 28 28 28 28 29 28 28 28 28 28 29 29 29 29 29 29 29 29 29 28 28 28 28 28 28 27 26 26 25 25 25 25
16 14 14 15 13 15 16 15 13 16 17 21 20 18 19 19 18 16 16 18 27 27 26 25 25 26 28 25 25 21 21 21 21 22 25 25 25 25 27 27 28 27 27 26 27 28 29 29 29 28 28 28 28 29 29 29 29 28 29 29 29 29 29 29 30 30 29 29 29 29 29 28 28 28 28 28 28 28 28 27 26 25 25 25 25 25
14 12 13 12 12 13 15 14 14 16 19 23 22 22 22 20 15 16 21 27 30 25 28 26 26 26 26 25 24 23 23 24 24 24 24 24 24 24 25 25 26 27 28 27 27 28 29 29 29 28 28 28 29 29 30 30 29 29 29 29 28 29 30 30 30 29 29 29 29 29 29 29 28 28 30 29 28 27 27 27 26 26 26 26 26 25
17 16 13 12 12 11 11 12 13 16 23 19 21 18 19 19 19 25 24 25 27 26 26 25 26 25 25 23 25 26 25 24 23 23 24 24 25 25 25 26 26 26 26 27 27 28 28 28 28 28 28 29 29 30 30 29 28 28 29 29 29 30 30 30 30 30 30 29 29 29 28 28 28 29 30 29 28 27 27 27 29 27 26 26 26 26
18 15 12 12 14 15 12 13 17 25 19 23 23 20 19 20 23 28 26 22 24 24 24 24 23 24 26 25 23 23 23 23 24 24 24 25 25 25 25 26 26 26 27 27 27 27 27 28 28 29 29 30 30 30 31 30 29 30 29 29 30 30 30 30 30 30 29 30 30 29 29 30 30 29 29 29 30 29 29 28 28 28 28 27 26 26
18 21 18 18 19 17 17 18 21 21 22 22 26 24 25 25 26 26 25 24 23 23 23 23 22 24 24 24 24 24 23 24 23 24 24 24 25 25 25 25 26 27 27 27 27 28 28 28 28 29 29 29 30 30 30 30 30 30 29 30 31 30 30 30 30 30 31 31 31 31 31 31 31 31 31 31 30 30 29 30 30 28 28 28 27 26
21 20 21 21 21 21 20 21 24 22 24 23 23 26 25 25 25 26 26 24 25 24 24 23 24 23 24 24 24 24 23 24 24 24 25 25 25 25 26 26 26 27 27 27 28 28 29 29 29 29 29 29 29 30 31 31 30 31 30 31 31 30 30 31 32 32 32 32 32 32 32 32 31 31 31 31 31 30 30 30 29 29 28 28 27 26
21 19 20 19 23 16 18 21 21 20 20 21 21 22 25 25 24 25 24 24 24 24 25 25 25 25 25 25 24 24 24 25 25 25 26 26 26 26 26 26 27 27 27 28 29 29 29 30 29 29 30 30 30 30 31 31 31 31 32 32 31 31 32 32 32 32 32 32 32 32 32 31 31 30 31 31 31 30 30 29 29 29 28 28 28 28
18 22 18 20 21 17 17 20 23 24 24 24 23 23 24 24 24 25 25 24 24 25 25 25 25 25 25 24 25 24 24 25 25 25 26 26 27 28 27 28 27 28 28 28 29 29 30 30 30 30 31 30 31 31 31 31 31 31 32 32 32 32 32 32 32 32 32 32 32 31 31 31 28 29 30 30 31 30 29 29 29 28 28 28 28 27
23 22 18 20 20 19 19 19 20 20 20 20 21 21 22 22 22 23 23 25 25 25 26 25 25 26 25 25 25 25 25 25 25 25 25 27 27 27 28 28 28 28 28 28 29 30 30 30 31 30 31 31 31 31 31 32 32 32 32 32 33 32 32 32 32 32 32 32 32 32 31 31 31 30 30 30 30 30 30 29 29 29 29 29 29 29
20 20 19 19 19 19 19 20 24 21 24 25 24 24 24 25 25 25 25 26 25 25 25 24 25 25 26 26 26 26 25 26 26 26 25 26 27 27 27 27 28 27 28 28 29 30 31 31 31 31 31 31 31 32 32 32 32 33 33 33 33 33 32 32 32 32 32 32 31 31 31 31 30 30 30 30 29 30 30 28 30 29 28 29 29 30
16 15 18 18 21 19 21 22 24 23 23 23 24 25 26 27 27 26 24 24 24 25 25 25 25 25 25 26 27 27 26 27 26 27 26 27 27 28 28 27 28 28 29 28 30 31 31 31 31 32 32 32 32 32 32 32 32 33 33 33 33 32 32 32 32 31 31 32 31 31 31 30 30 30 30 30 29 29 29 29 29 29 29 29 29 29